Location: Saint-Gilles les Bains
(21.0539°S, 55.2287°E)
Time: 02:39:55
(UTC+04:00)

Hubble Space Telescope - Pass Details

Date: 13 April 2024
Orbit: 512 x 516 km, 28.5° (Epoch: 17 May)

Event Time Altitude Azimuth Distance (km) Brightness Sun altitude
Exits shadow 04:57:58 34° 356° (N) 857 1.7 -22.2°
Maximum altitude 04:58:47 39° 26° (NNE) 787 1.8 -22.1°
Drops below altitude 10° 05:02:34 10° 95° (E) 1,748 4.5 -21.2°
Sets 05:04:55 0° 103° (ESE) 2,638 5.7 -20.6°
